Weather History for Block Island, RI

Change the Weather History Date:

Sunday, October 14, 2012

  Actual Average Record
Temperature  
Mean Temperature 60 °F -  
Max Temperature 66 °F 62 °F 76 °F (1990)
Min Temperature 53 °F 49 °F 35 °F (1972)
Degree Days  
Heating Degree Days 6    
Growing Degree Days 10 (Base 50)    
Moisture  
Dew Point 52 °F    
Average Humidity 71    
Maximum Humidity 82    
Minimum Humidity 54    
Precipitation  
Precipitation 0.00 in - - ()
Sea Level Pressure  
Sea Level Pressure 30.17 in    
Wind  
Wind Speed 18 mph (SW)    
Max Wind Speed 24 mph    
Max Gust Speed 32 mph    
Visibility 10 miles    
Events      
Averages and records for this station are not official NWS values.
T = Trace of Precipitation, MM = Missing Value Source: NWS Daily Summary

Daily Weather History Graph

Daily Weather History Graph

Search for Another Location

Airport:

Trip Planner

Search our weather history database for the weather conditions in past years. The results will help you decide how hot, cold, wet, or windy it might be!

Date:

Astronomy

Oct. 14, 2012 Rise Set
Actual Time 6:57 AM EDT 6:06 PM EDT
Civil Twilight 6:29 AM EDT 6:34 PM EDT
Nautical Twilight 5:57 AM EDT 7:06 PM EDT
Astronomical Twilight 5:25 AM EDT 7:37 PM EDT
Moon 5:52 AM EDT (10/14) 5:24 PM EDT (10/14)
Length of Visible Light 12h 04m
Length of Day
11h 09m
Waning Crescent, 1% of the Moon is Illuminated
Oct 14
Waning Crescent
Oct 15
New
Oct 21
First Quarter
Oct 29
Full
Nov 6
Last Quarter

Hourly Weather History & Observations

Time (EDT) Temp. Dew Point Humidity Pressure Visibility Wind Dir Wind Speed Gust Speed Precip Events Conditions
12:15 AM 53.6 °F 37.4 °F 54% 30.33 in 10.0 mi SW 16.1 mph 20.7 mph N/A   Partly Cloudy
12:35 AM 53.6 °F 37.4 °F 54% 30.34 in 10.0 mi SW 11.5 mph 20.7 mph N/A   Partly Cloudy
1:15 AM 53.6 °F 39.2 °F 58% 30.32 in 10.0 mi SW 18.4 mph 23.0 mph N/A   Scattered Clouds
1:35 AM 53.6 °F 39.2 °F 58% 30.32 in 10.0 mi SW 18.4 mph 23.0 mph N/A   Mostly Cloudy
1:55 AM 55.4 °F 41.0 °F 58% 30.32 in 10.0 mi SW 16.1 mph 23.0 mph N/A   Overcast
2:15 AM 55.4 °F 42.8 °F 63% 30.32 in 10.0 mi WSW 17.3 mph 21.9 mph N/A   Overcast
2:35 AM 55.4 °F 42.8 °F 63% 30.31 in 10.0 mi SW 11.5 mph 25.3 mph N/A   Overcast
2:55 AM 55.4 °F 42.8 °F 63% 30.29 in 10.0 mi SW 12.7 mph 19.6 mph N/A   Overcast
3:15 AM 55.4 °F 44.6 °F 67% 30.27 in 10.0 mi SW 16.1 mph 21.9 mph N/A   Overcast
3:35 AM 55.4 °F 44.6 °F 67% 30.25 in 10.0 mi SSW 18.4 mph 24.2 mph N/A   Overcast
3:55 AM 57.2 °F 44.6 °F 63% 30.26 in 10.0 mi SW 15.0 mph 26.5 mph N/A   Overcast
4:15 AM 57.2 °F 44.6 °F 63% 30.26 in 10.0 mi SW 21.9 mph 27.6 mph N/A   Overcast
4:35 AM 57.2 °F 46.4 °F 67% 30.25 in 10.0 mi SW 19.6 mph 26.5 mph N/A   Overcast
4:55 AM 57.2 °F 46.4 °F 67% 30.24 in 10.0 mi SSW 18.4 mph 26.5 mph N/A   Overcast
5:15 AM 57.2 °F 48.2 °F 72% 30.23 in 10.0 mi SSW 20.7 mph 28.8 mph N/A   Overcast
5:35 AM 57.2 °F 48.2 °F 72% 30.23 in 10.0 mi SW 19.6 mph 29.9 mph N/A   Overcast
5:55 AM 59.0 °F 48.2 °F 67% 30.23 in 10.0 mi SW 19.6 mph 27.6 mph N/A   Overcast
6:15 AM 59.0 °F 48.2 °F 67% 30.23 in 10.0 mi SW 21.9 mph 27.6 mph N/A   Overcast
6:35 AM 60.8 °F 48.2 °F 63% 30.22 in 10.0 mi SW 24.2 mph 31.1 mph N/A   Overcast
6:55 AM 60.8 °F 48.2 °F 63% 30.22 in 10.0 mi SW 19.6 mph 29.9 mph N/A   Overcast
7:35 AM 60.8 °F 48.2 °F 63% 30.23 in 10.0 mi WSW 19.6 mph 27.6 mph N/A   Overcast
7:55 AM 60.8 °F 48.2 °F 63% 30.23 in 10.0 mi WSW 19.6 mph 28.8 mph N/A   Overcast
8:15 AM 60.8 °F 50.0 °F 68% 30.23 in 10.0 mi WSW 17.3 mph 25.3 mph N/A   Overcast
8:35 AM 60.8 °F 50.0 °F 68% 30.23 in 10.0 mi WSW 23.0 mph 28.8 mph N/A   Overcast
8:55 AM 60.8 °F 50.0 °F 68% 30.23 in 10.0 mi SW 18.4 mph 28.8 mph N/A   Overcast
9:15 AM 60.8 °F 51.8 °F 72% 30.22 in 10.0 mi SW 20.7 mph 28.8 mph N/A   Overcast
9:35 AM 60.8 °F 51.8 °F 72% 30.22 in 10.0 mi SW 21.9 mph 26.5 mph N/A   Overcast
9:55 AM 62.6 °F 51.8 °F 68% 30.21 in 10.0 mi SW 21.9 mph 28.8 mph N/A   Overcast
10:15 AM 62.6 °F 51.8 °F 68% 30.21 in 10.0 mi SW 21.9 mph 28.8 mph N/A   Overcast
10:35 AM 62.6 °F 51.8 °F 68% 30.19 in 10.0 mi SW 23.0 mph 31.1 mph N/A   Mostly Cloudy
10:55 AM 64.4 °F 51.8 °F 64% 30.19 in 10.0 mi WSW 24.2 mph 32.2 mph N/A   Scattered Clouds
11:15 AM 64.4 °F 53.6 °F 68% 30.19 in 10.0 mi WSW 20.7 mph 31.1 mph N/A   Mostly Cloudy
11:55 AM 64.4 °F 53.6 °F 68% 30.19 in 10.0 mi WSW 23.0 mph 32.2 mph N/A   Mostly Cloudy
12:15 PM 64.4 °F 53.6 °F 68% 30.18 in 10.0 mi SW 21.9 mph 28.8 mph N/A   Overcast
12:35 PM 64.4 °F 55.4 °F 73% 30.18 in 10.0 mi SW 20.7 mph 32.2 mph N/A   Overcast
12:55 PM 66.2 °F 55.4 °F 68% 30.17 in 10.0 mi SW 21.9 mph 31.1 mph N/A   Overcast
1:15 PM 64.4 °F 55.4 °F 73% 30.16 in 10.0 mi SW 21.9 mph 29.9 mph N/A   Overcast
1:35 PM 66.2 °F 55.4 °F 68% 30.15 in 10.0 mi SW 23.0 mph 28.8 mph N/A   Overcast
1:55 PM 66.2 °F 55.4 °F 68% 30.14 in 10.0 mi SW 20.7 mph 28.8 mph N/A   Overcast
2:15 PM 66.2 °F 55.4 °F 68% 30.14 in 10.0 mi SW 20.7 mph 27.6 mph N/A   Overcast
2:35 PM 64.4 °F 53.6 °F 68% 30.13 in 10.0 mi SW 20.7 mph 29.9 mph N/A   Overcast
2:55 PM 64.4 °F 55.4 °F 73% 30.11 in 10.0 mi SW 20.7 mph 26.5 mph N/A   Mostly Cloudy
3:35 PM 64.4 °F 55.4 °F 73% 30.10 in 10.0 mi SW 23.0 mph 31.1 mph N/A   Mostly Cloudy
3:55 PM 64.4 °F 55.4 °F 73% 30.09 in 10.0 mi SW 18.4 mph 26.5 mph N/A   Partly Cloudy
4:15 PM 66.2 °F 55.4 °F 68% 30.09 in 10.0 mi SW 18.4 mph 25.3 mph N/A   Partly Cloudy
4:35 PM 64.4 °F 55.4 °F 73% 30.09 in 10.0 mi SW 18.4 mph 25.3 mph N/A   Clear
4:55 PM 64.4 °F 55.4 °F 73% 30.09 in 10.0 mi SW 19.6 mph 26.5 mph N/A   Clear
5:15 PM 64.4 °F 55.4 °F 73% 30.08 in 10.0 mi SW 17.3 mph 26.5 mph N/A   Clear
5:35 PM 64.4 °F 57.2 °F 77% 30.08 in 10.0 mi SW 16.1 mph 23.0 mph N/A   Clear
5:55 PM 62.6 °F 57.2 °F 82% 30.08 in 10.0 mi SW 17.3 mph 25.3 mph N/A   Clear
6:15 PM 62.6 °F 57.2 °F 82% 30.08 in 10.0 mi SW 16.1 mph 24.2 mph N/A   Clear
6:35 PM 62.6 °F 57.2 °F 82% 30.08 in 10.0 mi SW 17.3 mph 23.0 mph N/A   Clear
6:55 PM 62.6 °F 57.2 °F 82% 30.08 in 10.0 mi SW 16.1 mph 23.0 mph N/A   Clear
7:35 PM 62.6 °F 57.2 °F 82% 30.07 in 10.0 mi SW 16.1 mph 21.9 mph N/A   Clear
7:55 PM 62.6 °F 57.2 °F 82% 30.07 in 10.0 mi SW 16.1 mph 21.9 mph N/A   Clear
8:15 PM 62.6 °F 57.2 °F 82% 30.07 in 10.0 mi SW 15.0 mph 21.9 mph N/A   Clear
8:35 PM 62.6 °F 57.2 °F 82% 30.06 in 10.0 mi SW 16.1 mph 20.7 mph N/A   Clear
8:55 PM 62.6 °F 57.2 °F 82% 30.06 in 10.0 mi SSW 16.1 mph 19.6 mph N/A   Clear
9:15 PM 62.6 °F 57.2 °F 82% 30.06 in 10.0 mi SW 16.1 mph 23.0 mph N/A   Clear
9:35 PM 62.6 °F 57.2 °F 82% 30.06 in 10.0 mi SSW 17.3 mph 23.0 mph N/A   Clear
9:55 PM 62.6 °F 57.2 °F 82% 30.05 in 10.0 mi SSW 17.3 mph 23.0 mph N/A   Clear
10:15 PM 62.6 °F 57.2 °F 82% 30.05 in 10.0 mi SW 17.3 mph 23.0 mph N/A   Clear
10:35 PM 62.6 °F 57.2 °F 82% 30.05 in 10.0 mi SW 18.4 mph 25.3 mph N/A   Clear
10:55 PM 62.6 °F 57.2 °F 82% 30.04 in 10.0 mi SSW 17.3 mph 21.9 mph N/A   Clear
11:15 PM 64.4 °F 57.2 °F 77% 30.04 in 10.0 mi SSW 15.0 mph 23.0 mph N/A   Clear
11:35 PM 64.4 °F 57.2 °F 77% 30.03 in 10.0 mi SSW 17.3 mph 23.0 mph N/A   Clear
11:55 PM 64.4 °F 57.2 °F 77% 30.02 in 10.0 mi SSW 15.0 mph 23.0 mph N/A   Clear